Renton, WA
on Friday, November 16, 2012

Friday
Previous Day Next Day
Daily Summary
 ActualAverage (KSEA)Record (KSEA)
Temperature
Mean Temperature °F 45°F  
Max Temperature 52°F 51°F 68°F (1965)
Min Temperature 34°F 40°F 21°F (1955)
Degree Days
Heating Degree Days 22 20  
Month to date heating degree days 288  
Since 1 July heating degree days 885  
Cooling Degree Days 0 0  
Month to date cooling degree days 0  
Year to date cooling degree days 189  
Moisture
Dew Point 38°F   
Average Humidity 91    
Maximum Humidity 100    
Minimum Humidity 66    
Precipitation
Precipitation 0.15 in 0.23 in 1.08 in (1988)
Month to date precipitation 3.42  
Year to date precipitation 28.99  
Snow
Snow 0.00 in in T in (1994)
Month to date snowfall  
Since 1 July snowfall  
Snow Depth in   
Wind
Wind Speed 3 mph   
Max Wind Speed 6 mph   
Max Gust Speed mph   
Visibility 6 miles   
Events Rain   

Key: T is trace of precipitation, MM is missing value
Source: NWS Daily Summary
Time(PST)TemperatureDew PointHumidity Pressure Visibility Wind DirectionWind SpeedGust SpeedPrecipitationEvents Conditions
12:08 AM 37.4°F 37.4°F 100% 29.95 in 3.0 miles ESE 3.5 mph - N/A   Overcast
12:53 AM 39.0°F 37.0°F 93% 29.97 in 2.5 miles Calm Calm - N/A   Overcast
1:03 AM 39.2°F 37.4°F 93% 29.95 in 1.2 miles ESE 3.5 mph - N/A   Overcast
1:23 AM 39.2°F 37.4°F 93% 29.95 in 2.5 miles East 3.5 mph - N/A   Overcast
1:36 AM 37.4°F 37.4°F 100% 29.95 in 1.5 miles Variable 3.5 mph - N/A   Overcast
1:53 AM 37.9°F 37.0°F 97% 29.96 in 0.8 miles East 3.5 mph - N/A   Mist
2:03 AM 37.4°F 37.4°F 100% 29.94 in 1.0 miles Calm Calm - N/A   Mist
2:39 AM 37.4°F 35.6°F 93% 29.94 in 2.5 miles East 4.6 mph - N/A   Overcast
2:48 AM 37.4°F 35.6°F 93% 29.94 in 3.0 miles East 4.6 mph - N/A   Overcast
2:53 AM 37.0°F 36.0°F 96% 29.95 in 4.0 miles East 5.8 mph - N/A   Overcast
3:53 AM 36.0°F 35.1°F 97% 29.94 in 3.0 miles Calm Calm - 0.00 in   Overcast
4:00 AM 35.6°F 35.6°F 100% 29.92 in 2.5 miles Calm Calm - N/A   Overcast
4:12 AM 35.6°F 35.6°F 100% 29.92 in 3.0 miles Calm Calm - N/A   Overcast
4:53 AM 36.0°F 35.1°F 97% 29.94 in 2.0 miles ESE 3.5 mph - N/A   Overcast
5:01 AM 35.6°F 35.6°F 100% 29.92 in 1.5 miles East 4.6 mph - N/A   Overcast
5:20 AM 35.6°F 35.6°F 100% 29.92 in 2.0 miles East 3.5 mph - N/A   Overcast
5:39 AM 35.6°F 35.6°F 100% 29.92 in 4.0 miles East 3.5 mph - N/A   Overcast
5:53 AM 35.1°F 35.1°F 100% 29.94 in 4.0 miles ESE 3.5 mph - N/A   Overcast
6:26 AM 35.6°F 35.6°F 100% 29.92 in 2.0 miles ESE 3.5 mph - 0.00 in   Overcast
6:36 AM 35.6°F 33.8°F 93% 29.91 in 7.0 miles ESE 5.8 mph - 0.00 in   Overcast
6:53 AM 34.0°F 34.0°F 100% 29.93 in 9.0 miles SE 4.6 mph - 0.00 in   Overcast
7:53 AM 36.0°F 34.0°F 93% 29.94 in 10.0 miles SE 3.5 mph - N/A   Overcast
8:01 AM 35.6°F 33.8°F 93% 29.92 in 10.0 miles ESE 3.5 mph - N/A   Overcast
8:53 AM 39.0°F 36.0°F 89% 29.94 in 9.0 miles SSE 5.8 mph - 0.00 in   Overcast
9:53 AM 41.0°F 37.0°F 86% 29.94 in 10.0 miles SE 4.6 mph - N/A   Overcast
10:53 AM 42.1°F 37.9°F 85% 29.94 in 10.0 miles SE 3.5 mph - N/A   Overcast
11:53 AM 44.1°F 39.0°F 82% 29.92 in 10.0 miles Calm Calm - N/A   Overcast
12:53 PM 46.0°F 39.9°F 79% 29.90 in 10.0 miles Calm Calm - 0.00 in Rain Light Rain
1:53 PM 46.9°F 42.1°F 83% 29.87 in 9.0 miles Variable 3.5 mph - 0.00 in Rain Light Rain
2:53 PM 48.9°F 43.0°F 80% 29.85 in 10.0 miles Calm Calm - 0.03 in Rain Light Rain
3:53 PM 48.0°F 44.1°F 86% 29.84 in 4.0 miles Calm Calm - 0.04 in Rain Light Rain
4:53 PM 48.0°F 45.0°F 89% 29.81 in 10.0 miles NNW 3.5 mph - 0.03 in   Overcast
5:53 PM 48.0°F 45.0°F 89% 29.80 in 9.0 miles Calm Calm - 0.02 in Rain Light Rain
6:53 PM 48.0°F 45.0°F 89% 29.78 in 8.0 miles Calm Calm - 0.00 in   Overcast
7:53 PM 48.0°F 44.1°F 86% 29.77 in 9.0 miles Calm Calm - 0.01 in Rain Light Rain
8:53 PM 48.9°F 44.1°F 83% 29.75 in 9.0 miles Variable 5.8 mph - 0.00 in   Overcast
9:53 PM 48.9°F 44.1°F 83% 29.75 in 10.0 miles Variable 3.5 mph - 0.00 in Rain Light Rain
10:53 PM 52.0°F 41.0°F 66% 29.73 in 10.0 miles South 4.6 mph - 0.00 in   Overcast
11:53 PM 50.0°F 44.1°F 80% 29.72 in 10.0 miles Calm Calm - 0.02 in Rain Light Rain
Moon Phase
Nov. 16 Nov. 20 Nov. 28 Dec. 06 Dec. 13
Sunrise:07:16 AM (PST) Moon Rise:10:18 AM (PST)11/16
Sunset:04:30 PM (PST) Moon Set:07:34 PM (PST)11/16

Copyright © 2014 The Weather Underground, Inc.